Showing default

COSMOS 2582, 62903

Orbit data source: Space-Track

COSMOS 2582, 62903 is a payload satellite owned by MO RF (CIS) in LEO that was launched on Wed, 05 Feb 2025 UTC via a SOYUZ-2-1V launch vehicle from the Plesetsk Missile And Space Complex (PKMTR). Payload-class satellites include a variety of spacecraft equipped with specific instruments for various scientific and technological missions. These include communications satellites like Starlink; space stations such as the ISS; scientific satellites like the Hubble; Earth observation satellites from companies like Planet Labs, Umbra, and HawkEye 360; GPS; miniature CubeSats for education and research; and military/defense satellites.

Loading next visibility...
Identifier
62903, 2025-026B
Orbit
LEO
Country
Flag of CISCIS
Related business
Manufacturer
VNIIEM
Mission
Operational Defense Imaging
Bus & Motor
EMKA, Unknown motor
Mass
~500 kg wet, 500 kg dry
Launch date (UTC)
2025-02-05 (9 months ago)
Launch vehicle
SOYUZ-2-1V
Launch site
Plesetsk Missile And Space Complex (PKMTR)
Object type
Payload
Rocket body
Debris
Shape & HBR
Cyl + 2 Pan, 0.8 m
Radar Cross Section
3.727 m², Medium (>0.1 m² and < 1m²)

Expand to show TLE details & history
Last TLE update: 1 day ago

TLE from 1 day ago
0 COSMOS 2582
1 62903U 25026B   25308.48193882  .00001689  00000-0  15569-3 0  9999
2 62903  81.9934 303.6316 0011984  82.1324 278.1255 14.94095162 40646
Epoch: 2025-11-04T11:33Z
TLE epoch observation values (Epoch: 2025-11-04T11:33:59.514Z)
Latitude
-0.00001°
Longitude
86.16529°
Altitude
587.05 km
Speed
7.567 km/s
True Right ascension
20h 14m 31s
True Declination
0° 00' 00"
Sunlit
Object was in daylight at epoch
Visualization orbit readout
Latitude
Unknown
Longitude
Unknown
Altitude
Unknown
Speed
Unknown
Apparent Right ascension
Unknown
Apparent Declination
Unknown
Sunlit
N/A
Visualization observer readout
Local Sidereal Time
11:07:37
Azimuth
Unknown
Elevation
Unknown
Doppler factor
Unknown
Orbital elements
Apogee altitude
590.551 km
Perigee altitude
573.868 km
Semi-major axis
6,960.347 km
Eccentricity
0.0012
Inclination
81.9934°
RAAN
303.6316°
Arg. of periapsis
82.1324°
True anomaly
277.98952°
Mean anomaly
278.1255°
Eccentric anomaly
278.05751°
Mean motion
3.73763 °/min
Orbital period
96.32 mins
BSTAR
0.00015569
Loading maneuver chart data...
Computing Atmospheric mass density...
Loading historical data...
Loading historical data...
Loading historical data...
Loading historical data...
Loading historical data...
Loading historical data...
Loading historical data...

Documentation

Showing up to 5 results
|